TimePST,TemperatureF,Dew PointF,Humidity,Sea Level PressureIn,VisibilityMPH,Wind Direction,Wind SpeedMPH,Gust SpeedMPH,PrecipitationIn,Events,Conditions,WindDirDegrees,DateUTC
12:15 AM,39.2,32.0,75,30.09,10.0,ESE,13.8,-,N/A,,Clear,120,2013-03-05 08:15:00
12:55 AM,41.0,30.2,65,30.09,10.0,Calm,Calm,-,N/A,,Clear,0,2013-03-05 08:55:00
1:15 AM,41.0,30.2,65,30.10,10.0,Calm,Calm,-,N/A,,Clear,0,2013-03-05 09:15:00
1:55 AM,37.4,28.4,70,30.08,10.0,Calm,Calm,-,N/A,,Clear,0,2013-03-05 09:55:00
5:35 AM,41.0,28.4,61,30.05,10.0,South,11.5,-,N/A,,Clear,170,2013-03-05 13:35:00
6:15 AM,42.8,28.4,57,30.05,10.0,South,12.7,19.6,N/A,,Clear,180,2013-03-05 14:15:00
6:55 AM,50.0,28.4,43,30.05,10.0,East,16.1,-,N/A,,Clear,90,2013-03-05 14:55:00
7:15 AM,48.2,30.2,50,30.06,10.0,SSE,9.2,16.1,N/A,,Clear,150,2013-03-05 15:15:00
7:35 AM,50.0,28.4,43,30.06,10.0,SE,8.1,-,N/A,,Clear,130,2013-03-05 15:35:00
9:35 AM,59.0,28.4,31,30.07,10.0,NNW,10.4,-,N/A,,Clear,330,2013-03-05 17:35:00
9:55 AM,57.2,33.8,41,30.07,9.0,NW,8.1,-,N/A,,Clear,320,2013-03-05 17:55:00
10:15 AM,59.0,30.2,34,30.07,10.0,NNW,5.8,-,N/A,,Clear,330,2013-03-05 18:15:00
10:35 AM,60.8,30.2,31,30.06,9.0,NW,8.1,-,N/A,,Clear,310,2013-03-05 18:35:00
10:55 AM,60.8,32.0,34,30.06,10.0,NW,9.2,-,N/A,,Clear,310,2013-03-05 18:55:00
11:15 AM,62.6,26.6,26,30.05,10.0,NW,9.2,-,N/A,,Clear,310,2013-03-05 19:15:00
11:35 AM,62.6,24.8,24,30.05,10.0,West,6.9,-,N/A,,Clear,270,2013-03-05 19:35:00
11:55 AM,62.6,23.0,22,30.04,10.0,NW,6.9,-,N/A,,Clear,310,2013-03-05 19:55:00
12:15 PM,64.4,24.8,22,30.03,10.0,East,8.1,18.4,N/A,,Clear,100,2013-03-05 20:15:00
12:35 PM,64.4,24.8,22,30.02,10.0,SSE,13.8,18.4,N/A,,Clear,150,2013-03-05 20:35:00
12:55 PM,64.4,21.2,19,30.01,10.0,SE,10.4,21.9,N/A,,Clear,140,2013-03-05 20:55:00
1:15 PM,64.4,21.2,19,30.01,10.0,South,3.5,17.3,N/A,,Clear,170,2013-03-05 21:15:00
1:35 PM,64.4,23.0,21,30.00,10.0,South,8.1,20.7,N/A,,Clear,180,2013-03-05 21:35:00
1:55 PM,64.4,23.0,21,29.99,10.0,SE,10.4,17.3,N/A,,Clear,130,2013-03-05 21:55:00
2:15 PM,64.4,19.4,18,29.98,10.0,WSW,15.0,23.0,N/A,,Clear,250,2013-03-05 22:15:00
2:35 PM,64.4,15.8,15,29.98,10.0,WSW,13.8,20.7,N/A,,Clear,240,2013-03-05 22:35:00
2:55 PM,64.4,15.8,15,29.98,10.0,WSW,17.3,-,N/A,,Clear,240,2013-03-05 22:55:00
3:15 PM,62.6,19.4,19,29.98,10.0,WSW,11.5,-,N/A,,Clear,250,2013-03-05 23:15:00
3:35 PM,60.8,19.4,20,29.98,10.0,West,13.8,-,N/A,,Clear,260,2013-03-05 23:35:00
3:55 PM,60.8,21.2,22,29.97,10.0,SW,12.7,-,N/A,,Clear,230,2013-03-05 23:55:00
4:15 PM,60.8,19.4,20,29.98,10.0,SSW,5.8,-,N/A,,Clear,200,2013-03-06 00:15:00
4:35 PM,59.0,19.4,22,29.97,10.0,SW,9.2,-,N/A,,Clear,230,2013-03-06 00:35:00
4:55 PM,57.2,19.4,23,29.97,10.0,SW,11.5,-,N/A,,Clear,230,2013-03-06 00:55:00
5:15 PM,57.2,19.4,23,29.97,10.0,SW,12.7,-,N/A,,Clear,220,2013-03-06 01:15:00
5:35 PM,55.4,19.4,25,29.97,10.0,SW,12.7,16.1,N/A,,Clear,230,2013-03-06 01:35:00
5:55 PM,53.6,19.4,26,29.97,10.0,SSW,10.4,-,N/A,,Clear,210,2013-03-06 01:55:00
6:15 PM,51.8,17.6,26,29.97,10.0,SSW,5.8,-,N/A,,Clear,200,2013-03-06 02:15:00
6:35 PM,51.8,15.8,24,29.98,10.0,SW,8.1,-,N/A,,Clear,220,2013-03-06 02:35:00
6:55 PM,50.0,21.2,32,29.98,10.0,Calm,Calm,-,N/A,,Clear,0,2013-03-06 02:55:00
7:15 PM,50.0,14.0,24,29.98,10.0,West,12.7,17.3,N/A,,Clear,270,2013-03-06 03:15:00
7:35 PM,50.0,14.0,24,29.98,10.0,WSW,17.3,32.2,N/A,,Clear,240,2013-03-06 03:35:00
7:55 PM,50.0,15.8,26,29.98,10.0,SW,8.1,18.4,N/A,,Clear,230,2013-03-06 03:55:00
8:15 PM,48.2,14.0,25,29.97,10.0,SW,9.2,-,N/A,,Clear,220,2013-03-06 04:15:00
8:35 PM,50.0,12.2,22,29.98,10.0,WSW,4.6,-,N/A,,Clear,250,2013-03-06 04:35:00
8:55 PM,48.2,14.0,25,29.98,10.0,SW,5.8,-,N/A,,Clear,230,2013-03-06 04:55:00
9:15 PM,48.2,14.0,25,29.97,10.0,WSW,21.9,26.5,N/A,,Clear,250,2013-03-06 05:15:00
9:55 PM,48.2,15.8,27,29.99,10.0,NW,4.6,-,N/A,,Clear,310,2013-03-06 05:55:00
10:15 PM,48.2,12.2,24,29.98,10.0,WSW,10.4,-,N/A,,Clear,240,2013-03-06 06:15:00
10:35 PM,46.4,15.8,29,29.98,10.0,WSW,8.1,-,N/A,,Clear,250,2013-03-06 06:35:00
10:55 PM,42.8,19.4,39,29.99,10.0,WNW,4.6,-,N/A,,Clear,300,2013-03-06 06:55:00
11:15 PM,42.8,19.4,39,30.00,10.0,West,6.9,-,N/A,,Clear,280,2013-03-06 07:15:00
11:35 PM,41.0,21.2,45,30.00,10.0,West,6.9,-,N/A,,Clear,280,2013-03-06 07:35:00
11:55 PM,41.0,23.0,49,29.99,10.0,WNW,10.4,-,N/A,,Clear,300,2013-03-06 07:55:00